Terminal Aerodrome Forecast
Issued by NWS Wilmington, OH

Current Version | Previous Version | Graphics & Text | Print | Product List | Glossary On
Versions: 1 2 3 4 5 6 7 8 9 10 11 12 13 14 15 16 17 18 19 20 21 22 23 24 25 26 27 28 29 30
000
FTUS41 KILN 211400 AAA
TAFCVG
TAF AMD
KCVG 211459Z 2115/2218 12005KT P6SM SKC
     FM212100 13005KT P6SM SCT250
     FM220400 14004KT P6SM SCT050 BKN250
      TEMPO 2209/2212 -RA OVC050
     FM221200 18009KT P6SM BKN070=

USA.gov is the U.S. government's official web portal to all federal, state and local government web resources and services.